Weather Service Report


097 
ASUS44 KJAN 222110
RWRMS 

MISSISSIPPI HOURLY WEATHER ROUNDUP
NATIONAL WEATHER SERVICE JACKSON MS
400 PM CDT SUN OCT 22 2017

NOTE: "FAIR: INDICATES FEW OR NO CLOUDS BELOW 12,000 FEET WITH NO
SIGNIFICANT WEATHER AND/OR OBSTRUCTIONS TO VISIBILITY.

MSZ001>002-007>008-010>013-018>021-025>028-034>036-222200-
NORTHWEST MISSISSIPPI
  
CITY           SKY/WX    TMP DP  RH WIND       PRES   REMARKS
BATESVILLE     LGT RAIN  67  64  88 W8        29.99S                  
CLARKSDALE       N/A     66  66 100 W7        30.00F                  
CLEVELAND      MOCLDY    65  65 100 E5        29.96F                  
GREENWOOD      CLOUDY    67  64  90 W5        29.99F                  
GREENVILLE     CLOUDY    65  60  84 CALM      29.98F                  
OLIVE BRANCH   LGT RAIN N/A N/A N/A S9        29.95S                  
TUNICA           N/A    N/A N/A N/A W6        29.99F                  
WINONA         DRIZZLE   66  66 100 CALM      29.98F                  
$$

MSZ003>006-009-014>017-022>024-029>033-037>039-222200-
NORTHEAST MISSISSIPPI
  
CITY           SKY/WX    TMP DP  RH WIND       PRES   REMARKS
COLUMBUS AFB   PTSUNNY   74  68  83 S9        30.00S                  
CORINTH        CLOUDY    72  68  88 SE9G16    29.99S                  
GOLDN TRIANGLE PTSUNNY   75  65  70 SE13      30.01F                  
STARKVILLE     CLOUDY    73  64  73 SE7       30.01S                  
TUPELO         CLOUDY    75  65  70 SE14G20   29.99S                  
$$

MSZ040-058-222200-
CENTRAL MISSISSIPPI
  
CITY           SKY/WX    TMP DP  RH WIND       PRES   REMARKS
JACKSON INTL   CLOUDY    70  63  78 CALM      30.00F                  
JACKSON HAWKNS CLOUDY    67  63  87 S5        30.00F                  
MADISON        LGT RAIN  64  61  88 CALM      30.00F                  
MERIDIAN KEY   CLOUDY    73  67  81 S7        30.02R                  
MERIDIAN NAS   CLOUDY    72  67  84 SE7       30.04R                  
RAYMOND        FAIR      70  64  83 SE5       29.99F                  
VICKSBURG VKS  CLEAR     70  63  78 VRB7      29.96F                  
$$

MSZ059>079-222200-
SOUTH MISSISSIPPI
  
CITY           SKY/WX    TMP DP  RH WIND       PRES   REMARKS
HATTIESBURG    CLOUDY    70  70 100 VRB3      30.03S                  
LAUREL         CLOUDY    70  70 100 CALM      30.02F                  
MCCOMB         CLOUDY    68  58  70 CALM      30.02F                  
NATCHEZ        PTSUNNY   68  60  75 E10       29.94F                  
PINE BELT      CLOUDY    70  68  93 W3        30.03F                  
$$

MSZ080>082-222200-
COASTAL MISSISSIPPI
  
CITY           SKY/WX    TMP DP  RH WIND       PRES   REMARKS
BAY ST LOUIS   PTSUNNY   72  64  78 NW9G16    30.02S                  
BILOXI         CLOUDY    72  70  94 N6        29.99S                  
PASCAGOULA     HVY RAIN  69  67  93 NW8       30.00R VSB 3/4          
GULFPORT       CLOUDY    70  68  93 N12       30.00R                  
$$

LAZ007>009-015>016-023>026-222200-
NORTHEAST LOUISIANA
  
CITY           SKY/WX    TMP DP  RH WIND       PRES   REMARKS
BASTROP        MOCLDY    70  58  66 W14       30.02R                  
TALLULAH/VBURG CLOUDY    68  64  87 SE12      29.94F                  
VIDALIA        MOCLDY   N/A N/A N/A MISG      29.91F                  
$$
  

Return to Home page


Western Regional Climate Center, wrcc@dri.edu